User: anonymous   Login
Location: Unspecified
(0.0000°N, 0.0000°E)
Time: 13:33:38
(UTC+00:00)
Language:

NAVSTAR 65 (USA 213) - Orbit

View from above orbital plane
View from above orbital plane
View from above satellite
View from above satellite

Ground track
Ground track

The orbit data is extracted from the following two-line orbital elements,

1 36585U 10022A   16036.35414801 -.00000058  00000-0  00000+0 0  9997
2 36585  56.0748   0.3397 0049480  37.7623  45.6614  2.00577079 41675
Epoch (UTC): 05 February 2016 08:29:58
Eccentricity: 0.0049480
inclination: 56.0748°
perigee height: 20049 km
apogee height: 20312 km
right ascension of ascending node: 0.3397°
argument of perigee: 37.7623°
revolutions per day: 2.00577079
mean anomaly at epoch: 45.6614°
orbit number at epoch: 4167

The dashed part of the orbit path shows where the satellite is in the earth's shadow,  

DLR